When you browse on this site, cookies collect data to enhance your experience and personalize the content and advertising you see.
Visit our Privacy Policy to learn more. By continuing to use the site, you agree to this use of cookies and data.
  • En España
  • Lista de países
  • Para 7 días
  • Temperatura del agua
  • El tiempo en el mapa
  • Informadores
  • user-avatar
    Iniciar sesión

    Tiempo cada hora Diego de Almagro

    Hoy, 22 Enero, Miércoles

    Tiempo Temperatura Precipitaciones Viento Presión Humedad
    00:00 +16°C° 0 mm 0 mps 676 mmHg 70%
    01:00 +15°C° 0 mm 0 mps 676 mmHg 71%
    02:00 +15°C° 0 mm 0 mps 676 mmHg 72%
    03:00 +14°C° 0 mm 0 mps 676 mmHg 73%
    04:00 +15°C° 0 mm 1 mps 676 mmHg 74%
    05:00 +18°C° 0 mm 1 mps 676 mmHg 66%
    06:00 +18°C° 0 mm 0 mps 677 mmHg 58%
    07:00 +20°C° 0 mm 0 mps 678 mmHg 49%
    08:00 +24°C° 0 mm 2 mps 678 mmHg 41%
    09:00 +26°C° 0 mm 3 mps 678 mmHg 33%
    10:00 +29°C° 0 mm 4 mps 679 mmHg 24%
    11:00 +30°C° 0 mm 4 mps 678 mmHg 22%
    12:00 +32°C° 0 mm 5 mps 678 mmHg 21%
    13:00 +32°C° 0 mm 6 mps 678 mmHg 19%
    14:00 +32°C° 0 mm 6 mps 678 mmHg 21%
    15:00 +30°C° 0 mm 6 mps 678 mmHg 23%
    16:00 +29°C° 0 mm 6 mps 677 mmHg 25%
    17:00 +26°C° 0 mm 4 mps 677 mmHg 33%
    18:00 +24°C° 0 mm 3 mps 677 mmHg 41%
    19:00 +20°C° 0 mm 2 mps 678 mmHg 49%
    20:00 +20°C° 0 mm 1 mps 678 mmHg 54%
    21:00 +19°C° 0 mm 1 mps 678 mmHg 59%
    22:00 +16°C° 0 mm 0 mps 678 mmHg 64%
    23:00 +16°C° 0 mm 0 mps 677 mmHg 66%

    Mañana, 23 Enero, Jueves

    Tiempo Temperatura Precipitaciones Viento Presión Humedad
    00:00 +15°C° 0 mm 0 mps 677 mmHg 68%
    01:00 +15°C° 0 mm 0 mps 677 mmHg 70%
    02:00 +14°C° 0 mm 0 mps 677 mmHg 73%
    03:00 +14°C° 0 mm 0 mps 677 mmHg 75%
    04:00 +14°C° 0 mm 0 mps 677 mmHg 77%
    05:00 +15°C° 0 mm 0 mps 678 mmHg 69%
    06:00 +17°C° 0 mm 0 mps 678 mmHg 62%
    07:00 +19°C° 0 mm 0 mps 679 mmHg 54%
    08:00 +23°C° 0 mm 1 mps 679 mmHg 45%
    09:00 +26°C° 0 mm 3 mps 679 mmHg 37%
    10:00 +28°C° 0 mm 4 mps 679 mmHg 29%
    11:00 +29°C° 0 mm 5 mps 679 mmHg 28%
    12:00 +30°C° 0 mm 6 mps 679 mmHg 28%
    13:00 +32°C° 0 mm 7 mps 679 mmHg 27%
    14:00 +30°C° 0 mm 7 mps 679 mmHg 31%
    15:00 +28°C° 0 mm 6 mps 678 mmHg 36%
    16:00 +27°C° 0 mm 6 mps 678 mmHg 41%
    17:00 +25°C° 0 mm 5 mps 678 mmHg 47%
    18:00 +24°C° 0 mm 3 mps 678 mmHg 54%
    19:00 +21°C° 0 mm 2 mps 678 mmHg 61%
    20:00 +21°C° 0 mm 1 mps 678 mmHg 66%
    21:00 +20°C° 0 mm 1 mps 678 mmHg 71%
    22:00 +17°C° 0 mm 0 mps 678 mmHg 76%
    23:00 +16°C° 0 mm 0 mps 678 mmHg 78%

    Pasado mañana, 24 Enero, Viernes

    Tiempo Temperatura Precipitaciones Viento Presión Humedad
    00:00 +16°C° 0 mm 0 mps 677 mmHg 80%
    01:00 +15°C° 0 mm 0 mps 677 mmHg 82%
    02:00 +15°C° 0 mm 0 mps 677 mmHg 84%
    03:00 +15°C° 0 mm 0 mps 677 mmHg 85%
    04:00 +14°C° 0 mm 0 mps 677 mmHg 87%
    05:00 +16°C° 0 mm 0 mps 678 mmHg 79%
    06:00 +18°C° 0 mm 0 mps 678 mmHg 71%
    07:00 +19°C° 0 mm 0 mps 679 mmHg 62%
    08:00 +24°C° 0 mm 2 mps 679 mmHg 54%
    09:00 +26°C° 0 mm 3 mps 679 mmHg 46%
    10:00 +28°C° 0 mm 4 mps 680 mmHg 38%
    11:00 +29°C° 0 mm 5 mps 680 mmHg 36%
    12:00 +30°C° 0 mm 6 mps 680 mmHg 34%
    13:00 +32°C° 0 mm 7 mps 679 mmHg 32%
    14:00 +30°C° 0 mm 7 mps 679 mmHg 34%
    15:00 +29°C° 0 mm 7 mps 679 mmHg 36%
    16:00 +28°C° 0 mm 7 mps 678 mmHg 38%
    17:00 +26°C° 0 mm 5 mps 678 mmHg 46%
    18:00 +23°C° 0 mm 4 mps 678 mmHg 54%
    19:00 +21°C° 0 mm 2 mps 678 mmHg 62%
    20:00 +21°C° 0 mm 1 mps 679 mmHg 66%
    21:00 +20°C° 0 mm 1 mps 679 mmHg 71%
    22:00 +17°C° 0 mm 0 mps 679 mmHg 75%
    23:00 +17°C° 0 mm 0 mps 678 mmHg 76%

    25 Enero, Sábado

    Tiempo Temperatura Precipitaciones Viento Presión Humedad
    00:00 +17°C° 0 mm 0 mps 678 mmHg 77%
    01:00 +16°C° 0 mm 0 mps 678 mmHg 78%
    02:00 +16°C° 0 mm 0 mps 678 mmHg 79%
    03:00 +16°C° 0 mm 0 mps 677 mmHg 81%
    04:00 +15°C° 0 mm 0 mps 677 mmHg 82%
    05:00 +17°C° 0 mm 0 mps 678 mmHg 76%
    06:00 +20°C° 0 mm 1 mps 679 mmHg 69%
    07:00 +22°C° 0 mm 1 mps 679 mmHg 63%
    08:00 +24°C° 0 mm 2 mps 680 mmHg 55%
    09:00 +26°C° 0 mm 3 mps 680 mmHg 48%
    10:00 +28°C° 0 mm 4 mps 680 mmHg 41%
    11:00 +29°C° 0 mm 5 mps 680 mmHg 38%
    12:00 +30°C° 0 mm 6 mps 680 mmHg 36%
    13:00 +32°C° 0 mm 7 mps 680 mmHg 33%
    14:00 +30°C° 0 mm 7 mps 680 mmHg 35%
    15:00 +29°C° 0 mm 6 mps 679 mmHg 37%
    16:00 +28°C° 0 mm 6 mps 679 mmHg 40%
    17:00 +26°C° 0 mm 4 mps 679 mmHg 47%
    18:00 +24°C° 0 mm 3 mps 679 mmHg 54%
    19:00 +21°C° 0 mm 2 mps 679 mmHg 61%
    20:00 +21°C° 0 mm 1 mps 679 mmHg 66%
    21:00 +20°C° 0 mm 1 mps 679 mmHg 71%
    22:00 +17°C° 0 mm 0 mps 679 mmHg 76%
    23:00 +16°C° 0 mm 0 mps 679 mmHg 78%

    26 Enero, Domingo

    Tiempo Temperatura Precipitaciones Viento Presión Humedad
    00:00 +16°C° 0 mm 0 mps 678 mmHg 79%
    01:00 +16°C° 0 mm 0 mps 678 mmHg 81%
    02:00 +15°C° 0 mm 0 mps 678 mmHg 82%
    03:00 +15°C° 0 mm 0 mps 678 mmHg 84%
    04:00 +15°C° 0 mm 0 mps 678 mmHg 85%
    05:00 +16°C° 0 mm 0 mps 679 mmHg 77%
    06:00 +20°C° 0 mm 1 mps 679 mmHg 69%
    07:00 +22°C° 0 mm 1 mps 680 mmHg 61%
    08:00 +24°C° 0 mm 2 mps 680 mmHg 54%
    09:00 +26°C° 0 mm 3 mps 680 mmHg 47%
    10:00 +28°C° 0 mm 4 mps 680 mmHg 40%
    11:00 +29°C° 0 mm 5 mps 680 mmHg 37%
    12:00 +30°C° 0 mm 5 mps 680 mmHg 34%
    13:00 +32°C° 0 mm 6 mps 680 mmHg 31%
    14:00 +30°C° 0 mm 6 mps 680 mmHg 33%
    15:00 +30°C° 0 mm 6 mps 679 mmHg 34%
    16:00 +29°C° 0 mm 5 mps 679 mmHg 36%
    17:00 +27°C° 0 mm 4 mps 679 mmHg 43%
    18:00 +24°C° 0 mm 3 mps 679 mmHg 50%
    19:00 +21°C° 0 mm 2 mps 678 mmHg 57%
    20:00 +21°C° 0 mm 1 mps 678 mmHg 62%
    21:00 +18°C° 0 mm 0 mps 678 mmHg 66%
    22:00 +17°C° 0 mm 0 mps 678 mmHg 71%
    23:00 +16°C° 0 mm 0 mps 678 mmHg 72%

    27 Enero, Lunes

    Tiempo Temperatura Precipitaciones Viento Presión Humedad
    00:00 +16°C° 0 mm 0 mps 678 mmHg 74%
    01:00 +16°C° 0 mm 0 mps 678 mmHg 75%
    02:00 +15°C° 0 mm 0 mps 678 mmHg 76%
    03:00 +15°C° 0 mm 0 mps 678 mmHg 78%
    04:00 +15°C° 0 mm 0 mps 678 mmHg 79%
    05:00 +17°C° 0 mm 0 mps 678 mmHg 71%
    06:00 +18°C° 0 mm 0 mps 679 mmHg 62%
    07:00 +20°C° 0 mm 0 mps 679 mmHg 54%
    08:00 +25°C° 0 mm 1 mps 680 mmHg 47%
    09:00 +27°C° 0 mm 3 mps 680 mmHg 39%
    10:00 +30°C° 0 mm 4 mps 680 mmHg 32%
    11:00 +30°C° 0 mm 5 mps 680 mmHg 30%
    12:00 +32°C° 0 mm 6 mps 680 mmHg 29%
    13:00 +33°C° 0 mm 7 mps 680 mmHg 27%
    14:00 +32°C° 0 mm 6 mps 679 mmHg 29%
    15:00 +30°C° 0 mm 6 mps 679 mmHg 30%
    16:00 +29°C° 0 mm 5 mps 679 mmHg 32%
    17:00 +27°C° 0 mm 4 mps 678 mmHg 39%
    18:00 +24°C° 0 mm 3 mps 678 mmHg 46%
    19:00 +22°C° 0 mm 1 mps 678 mmHg 52%
    20:00 +21°C° 0 mm 1 mps 678 mmHg 58%
    21:00 +20°C° 0 mm 1 mps 677 mmHg 63%
    22:00 +17°C° 0 mm 0 mps 677 mmHg 69%
    23:00 +16°C° 0 mm 0 mps 677 mmHg 70%
    Mostrar más